Regional Weather Roundup
Issued by NWS Charleston, SC

Current Version | Previous Version | Graphics & Text | Print | Product List | Glossary On
Versions: 1 2 3 4 5 6 7 8 9 10 11 12 13 14 15 16 17 18 19 20 21 22 23 24 25 26 27 28 29 30 31 32 33 34 35 36 37 38 39 40 41 42 43 44 45 46 47 48 49 50
000
ASUS42 KCHS 230429
RWRCHS

REGIONAL WEATHER ROUNDUP
NATIONAL WEATHER SERVICE CHARLESTON SC
1200 AM EDT SAT SEP 23 2017

NOTE: "FAIR" INDICATES FEW OR NO CLOUDS BELOW 12,000 FEET WITH NO
SIGNIFICANT WEATHER AND/OR OBSTRUCTIONS TO VISIBILITY.

NOT ALL STATIONS ARE QUALITY CONTROLLED. USE DATA WITH CAUTION...
ESPECIALLY DEWPOINT OBSERVATIONS.

SCZ027-030-031-034>040-042>050-230500-
...SOUTHEAST SOUTH CAROLINA...

CITY           SKY/WX    TMP DP  RH WIND       PRES   REMARKS
N CHARLESTON   CLEAR     72  71  97 CALM      30.00S
WATERFRONT PRK   N/A     78  75  90 VRB2      29.83F
JOHNS ISLAND   FAIR      72  72 100 CALM      30.00S
PINOPOLIS        N/A     73  72  94 CALM      29.93S
MONCKS CORNER  FAIR      68  68 100 CALM      30.00F FOG
SUMMERVILLE    FAIR      70  70 100 CALM      30.02S
BEAUFORT MCAS  CLEAR     74  74 100 N6        30.00S
BEAUFORT ARPT  FAIR      75  72  88 E3        29.99F
HILTON HEAD IS CLEAR     77  73  88 CALM      30.00S
WALTERBORO     CLEAR     68  66  94 CALM      30.01F
ALLENDALE      NOT AVBL

...SOUTHERN MIDLANDS AND PEE DEE...

CITY           SKY/WX    TMP DP  RH WIND       PRES   REMARKS
GEORGETOWN     FAIR      70  70 100 CALM      30.01F FOG
KINGSTREE      FAIR      64  64 100 CALM      30.01S
ORANGEBURG     CLEAR     71  68  90 CALM      30.02S
BARNWELL       FAIR      72  72 100 CALM      30.02S
AIKEN          FAIR      68  66  94 CALM      30.05F
MANNING        FAIR      68  59  73 MISG      30.01F
COLUMBIA       CLEAR     72  68  87 CALM      30.01S
SUMTER         CLEAR     70  65  83 CALM      29.99F
FLORENCE       CLEAR     71  69  93 CALM      30.02S
MYRTLE BEACH   PTCLDY    76  71  85 CALM      30.02S
N MYRTLE BEACH CLEAR     72  71  97 CALM      30.01S

$$

GAZ063-065-086>088-099>101-113>116-118-119-134>141-150-230500-
...SOUTHEAST GEORGIA...

CITY           SKY/WX    TMP DP  RH WIND       PRES   REMARKS
SAVANNAH ARPT  CLEAR     73  71  93 CALM      30.00S
HUNTER AAF     CLEAR     74  71  88 CALM      29.97S
FORT STEWART   CLEAR     71  69  93 NW3       29.97S
STATESBORO     CLEAR     71  70  95 CALM      30.01S
SYLVANIA       CLEAR     71  71 100 CALM      30.02S
CLAXTON        FAIR      72  71  96 CALM      30.00S

...CSRA...CENTRAL AND FAR SOUTHEAST GEORGIA...

CITY           SKY/WX    TMP DP  RH WIND       PRES   REMARKS
THOMSON        CLEAR     69  67  94 CALM      30.08S
AUGUSTA-BUSH   CLEAR     69  68  96 CALM      30.01S
AUGUSTA-DANIEL CLEAR     75  71  87 CALM      30.02S
SWAINSBORO     FAIR      70  70 100 CALM      30.02F
VIDALIA        CLEAR     72  70  94 CALM      30.01S
EASTMAN        FAIR      69  68  97 CALM      30.04S
HAZLEHURST     FAIR      75  63  65 CALM      29.99S
ALMA           CLEAR     69  67  93 CALM      29.99S
WAYCROSS       CLEAR     71  69  90 CALM      29.99S
JESUP          NOT AVBL
BAXLEY         FAIR      68  68 100 CALM      29.99F
BRUNSWICK        N/A     72  70  94 CALM      29.98F FOG
SAINT SIMONS   CLEAR     80  71  74 E9        29.97S

$$

SCZ027-028-034-036>038-045-046-048>050-GAZ119-141-230500-
...LAKE AND SUPPLEMENTAL COASTAL OBSERVATIONS...

STATION/POSITION TIME  TEMP    WIND        PRES    WAVE   SWELL
                       AIR SEA DIR/SP/G            HT/PER HT/PER/DIR
                 (UTC) (F)     (DEG/KT/KT) (MB)    (FT/S) (FT/S/D)
WINYAH BAY       0245   79      90/  5     1016.0
LAKE MURRAY      0320   76        CALM     1015.6
ACE BASIN NERRS  0245   73        CALM     1016.0
FORT PULASKI     0342   79 81   80/  8/  9 1015.9F
SAPELO ISLAND    0300   78        CALM     1015.0

$$

ANZ835-935-AMZ111-154-330-350-352-354-370-450-454-472-230500-
...C-MAN AND BUOY OBSERVATIONS...

STATION/POSITION TIME  TEMP    WIND        PRES    WAVE   SWELL
                       AIR SEA DIR/SP/G            HT/PER HT/PER/DIR
                 (UTC) (F)     (DEG/KT/KT) (MB)    (FT/S) (FT/S/D)
BUOY 41004       0350   80 82   70/  8/ 10 1014.9S   5/11   5/120/11
BUOY 41008       0350   80 80   70/ 10/ 12 1014.6F   4/14   5/130/14
FOLLY BEACH CMAN 0400   79      90/ 10/ 11 1016.3S
CAPERS NEARSHORE NOT AVBL
FRIPP NEARSHORE  0308   79      80/  8/ 10 1021.2R


STATION/POSITION TIME  TEMP    WIND        PRES    WAVE   SWELL
                       AIR SEA DIR/SP/G            HT/PER HT/PER/DIR
                 (UTC) (F)     (DEG/KT/KT) (MB)    (FT/S) (FT/S/D)
5E ST. MARYS GA  0330      82                N/A     4/13   3/110/13
FRYING PAN BUOY  0350   81 82   90/  6/  8 1015.6F   6/12   7/140/12
BUOY 41025       0350   77 77  280/  2/  4 1016.1R   6/11   7/100/11
CAPE LOOKOUT NC  0400   77     210/  4/  6 1015.9F
BUOY 41002       0350   79 80   60/ 12/ 16 1015.2R  10/12  10/110/12
BUOY 41010       0350           70/ 14/ 19 1013.6F  11/15  10/15
ST AUGUSTINE FL  0400   80 83  100/  8/ 10 1014.1F


$$




USA.gov is the U.S. government's official web portal to all federal, state and local government web resources and services.